Simultaneous Nadir Overpasses (SNOs) Predictions

Prediction of SNOs between AQUA and NPP Satellite Orbit:

Table of predicted SNOs for the next 14.0 days since TLE Epoch: 1/20/2024
Index Date (AQUA) Time (AQUA) Lat,Lon (AQUA) SZA (AQUA ) Date (NPP) Time (NPP) Lat,Lon (NPP) SZA (NPP ) Distance(km) Time Diff (sec)
1 01/21/2024 03:35:32 -81.06,-136.20 71.00 01/21/2024 03:34:47 -81.06,-136.32 70.95 2.14 45
2 01/21/2024 04:24:53 81.11, 32.19 108.90 01/21/2024 04:25:28 81.10, 32.32 108.85 2.35 35
3 01/23/2024 17:19:25 81.08,-161.82 108.41 01/23/2024 17:19:26 81.08,-161.95 108.43 2.34 1
4 01/26/2024 06:13:54 81.09, 4.73 107.80 01/26/2024 06:13:21 81.09, 4.83 107.80 1.70 33
5 01/26/2024 07:03:16 -81.12, 172.87 72.28 01/26/2024 07:04:04 -81.12, 173.05 72.34 3.04 48
6 01/28/2024 19:08:22 81.06, 170.74 107.23 01/28/2024 19:07:17 81.07, 170.80 107.26 1.07 65
7 01/28/2024 19:57:44 -81.09, -21.11 72.86 01/28/2024 19:58:00 -81.10, -20.97 72.89 2.48 16
8 01/31/2024 08:52:11 -81.08, 145.11 73.49 01/31/2024 08:51:57 -81.08, 144.95 73.46 2.65 14
9 01/31/2024 09:41:32 81.12, -46.60 106.41 01/31/2024 09:42:38 81.12, -46.45 106.35 2.48 66
10 02/02/2024 21:46:36 -81.08, -48.49 74.19 02/02/2024 21:45:52 -81.08, -48.44 74.17 0.79 44



Historial Predications of SNOs between AQUA and NPP
